Creek Data

    Home     View Charts     View Raw Data     Messages

ID Distance Battery Voltage Battery Current Internal Temp Internal Humidity External Temp Solar Input rssi snr Time Stamp Record
36736 0.0 3.84 -5 36 40 38 0 -80 9 04/03/2025 03:16 AM 18594
36735 0.0 3.84 -5 37 40 38 0 -80 8 04/03/2025 03:00 AM 18593
36734 0.0 3.84 -5 37 41 39 0 -80 7 04/03/2025 02:46 AM 18592
36733 0.0 3.84 -5 37 41 39 0 -81 8 04/03/2025 02:30 AM 18591
36732 0.0 3.84 -5 37 41 38 0 -80 7 04/03/2025 02:15 AM 18590
36731 14.9 3.85 -5 38 41 39 0 -80 7 04/03/2025 02:00 AM 18589
36730 14.9 3.93 -5 38 42 40 0 -81 8 04/03/2025 01:45 AM 18588
36729 0.0 3.93 -5 39 42 41 0 -80 8 04/03/2025 01:30 AM 18587
36728 0.0 3.83 -5 40 42 40 0 -80 7 04/03/2025 01:15 AM 18586
36727 0.0 3.82 -5 41 42 42 0.1 -82 8 04/03/2025 01:00 AM 18585
36726 0.0 3.83 -5 43 41 43 0 -82 7 04/03/2025 12:45 AM 18584
36725 0.0 3.84 -5 45 41 46 0 -80 7 04/03/2025 12:30 AM 18583
36724 0.0 3.83 -5 45 41 47 0.1 -81 6 04/03/2025 12:15 AM 18582
36723 0.0 3.82 -5 46 41 47 0 -82 7 04/03/2025 12:00 AM 18581
36722 0.0 3.93 -5 46 41 48 0 -83 8 04/02/2025 11:45 PM 18580
36721 0.0 3.82 -5 46 41 48 0.1 -80 6 04/02/2025 11:30 PM 18579
36720 0.0 3.93 -5 47 41 48 0 -81 8 04/02/2025 11:15 PM 18578
36719 0.0 3.82 -5 47 41 49 0 -81 8 04/02/2025 11:00 PM 18577
36718 0.0 3.82 -5 48 41 49 0 -83 8 04/02/2025 10:46 PM 18576
36717 0.0 3.87 -5 48 41 50 0 -83 8 04/02/2025 10:30 PM 18575
36716 14.9 3.94 -5 48 42 50 0 -83 9 04/02/2025 10:15 PM 18574
36715 0.0 3.87 -5 48 42 50 0 -82 7 04/02/2025 10:00 PM 18573
36714 0.0 3.94 -5 49 42 50 0.1 -84 8 04/02/2025 09:45 PM 18572
36713 0.0 3.86 -5 49 43 50 0 -84 8 04/02/2025 09:30 PM 18571
36712 0.0 3.85 -5 50 43 51 0 -81 8 04/02/2025 09:15 PM 18570